Weather observations for the past three days for
Dumas, Moore County Airport
| Date | Time (cdt) | Wind (mph) | Vis. (mi.) | Weather | Sky Cond. | Temperature (ºF) | Relative Humidity | Wind Chill (°F) | Heat Index (°F) | Pressure | Precipitation (in) | ||||||
|---|---|---|---|---|---|---|---|---|---|---|---|---|---|---|---|---|---|
| Air | Dwpt | 6 hour | altimeter (in) | sea level (mb) | 1 hr | 3 hr | 6 hr | ||||||||||
| Max. | Min. | ||||||||||||||||
| 07 | 06:55 | W 12 | 4.00 | Fog/Mist | SCT002 | 37.4 | 37.4 | 41 | 36.1 | 100% | 30 | 30.15 | 0.0 | ||||
| 07 | 06:35 | SW 15 | 0.25 | Fog | OVC002 | 37.4 | 37.4 | 100% | 29 | 30.16 | 0.0 | ||||||
| 07 | 06:15 | SW 13 | 3.00 | Fog/Mist | CLR | 37.4 | 37.4 | 100% | 30 | 30.16 | 0.0 | ||||||
| 07 | 05:55 | W 10 | 4.00 | Fog/Mist | CLR | 37.4 | 37.4 | 100% | 31 | 30.16 | 0.0 | ||||||
| 07 | 05:35 | SW 8 | 3.00 | Fog/Mist | CLR | 35.6 | 35.6 | 100% | 30 | 30.16 | 0.0 | ||||||
| 07 | 05:15 | SW 8 | 4.00 | Fog/Mist | CLR | 37.4 | 37.4 | 100% | 32 | 30.16 | 0.0 | ||||||
| 07 | 04:55 | W 7 | 5.00 | Fog/Mist | CLR | 37.4 | 37.4 | 100% | 33 | 30.16 | 0.0 | ||||||
| 07 | 04:35 | SW 9 | 3.00 | Fog/Mist | CLR | 37.4 | 37.4 | 100% | 31 | 30.16 | 0.0 | ||||||
| 07 | 04:15 | W 6 | 2.00 | Fog/Mist | CLR | 37.4 | 37.4 | 100% | 33 | 30.16 | 0.0 | ||||||
| 07 | 03:55 | W 6 | 3.00 | Fog/Mist | FEW060 | 37.4 | 37.4 | 100% | 33 | 30.16 | 0.0 | ||||||
| 07 | 03:35 | W 6 | 4.00 | Fog/Mist | FEW047 BKN060 | 37.4 | 37.4 | 100% | 33 | 30.16 | 0.0 | ||||||
| 07 | 03:15 | W 5 | 4.00 | Fog/Mist | BKN060 | 37.4 | 37.4 | 100% | 34 | 30.16 | 0.0 | ||||||
| 07 | 02:55 | NW 5 | 5.00 | Fog/Mist | FEW060 | 39.2 | 39.2 | 100% | 36 | 30.17 | 0.0 | ||||||
| 07 | 02:15 | NW 3 | 7.00 | Fog/Mist | FEW005 SCT110 | 39.2 | 39.2 | 100% | 30.18 | 0.0 | |||||||
| 07 | 01:55 | N 3 | 10.00 | Mostly Cloudy | SCT006 BKN110 | 39.2 | 39.2 | 100% | 30.19 | 0.0 | 0.01 | ||||||
| 07 | 01:35 | N 5 | 7.00 | Overcast | OVC004 | 41 | 41 | 100% | 38 | 30.19 | 0.0 | ||||||
| 07 | 01:15 | N 3 | 5.00 | Fog/Mist | BKN004 OVC035 | 41 | 41 | 100% | 30.19 | 0.0 | |||||||
| 07 | 00:55 | N 3 | 4.00 | Light Rain Fog/Mist | FEW003 BKN035 OVC047 | 41 | 41 | 51.6 | 40.3 | 100% | 30.19 | 0.0 | 0.11 | ||||
| 07 | 00:35 | Calm | 1.50 | Rain Fog/Mist | BKN003 BKN007 OVC035 | 41 | 41 | 100% | 30.2 | 0.0 | |||||||
| 07 | 00:15 | N 9 | 2.00 | Rain Fog/Mist | OVC007 | 41 | 41 | 100% | 36 | 30.19 | 0.0 | ||||||
| 06 | 23:55 | N 9 | 3.00 | Light Drizzle Fog/Mist | BKN003 OVC008 | 41 | 41 | 100% | 36 | 30.18 | 0.0 | 0.18 | |||||
| 06 | 23:35 | N 10 | 1.00 | Rain Fog/Mist | OVC005 | 41 | 41 | 100% | 35 | 30.19 | 0.0 | ||||||
| 06 | 23:15 | N 13 | 2.50 | Light Rain Fog/Mist | SCT005 BKN029 OVC047 | 41 | 41 | 100% | 34 | 30.2 | 0.0 | ||||||
| 06 | 22:35 | N 8 | 2.50 | Rain Fog/Mist | FEW032 BKN041 | 41 | 41 | 100% | 36 | 30.18 | 0.0 | ||||||
| 06 | 22:15 | NE 8 | 4.00 | Light Rain Fog/Mist | FEW020 BKN041 BKN055 | 42.8 | 41 | 93% | 39 | 30.17 | 0.0 | ||||||
| 06 | 21:55 | N 9 | 10.00 | Overcast | SCT035 SCT043 OVC055 | 42.8 | 39.2 | 87% | 38 | 30.17 | 0.0 | ||||||
| 06 | 21:35 | N 18 | 10.00 | Overcast | OVC055 | 42.8 | 41 | 93% | 35 | 30.16 | 0.0 | ||||||
| 06 | 21:15 | N 17 | 10.00 | Light Rain | FEW035 OVC049 | 44.6 | 39.2 | 81% | 38 | 30.15 | 0.0 | ||||||
| 06 | 20:55 | N 17 G 23 | 8.00 | Light Rain | SCT035 OVC047 | 46.4 | 37.4 | 71% | 40 | 30.14 | 0.0 | ||||||
| 06 | 20:35 | NE 16 G 21 | 10.00 | Overcast | SCT041 OVC047 | 48.2 | 35.6 | 62% | 43 | 30.12 | 0.0 | ||||||
| 06 | 20:15 | NE 14 | 10.00 | Overcast | OVC042 | 48.2 | 35.6 | 62% | 43 | 30.11 | 0.0 | ||||||
| 06 | 19:55 | NE 13 | 10.00 | Overcast | OVC040 | 50 | 35.6 | 58% | 46 | 30.09 | 0.0 | ||||||
| 06 | 19:35 | NE 13 | 10.00 | Overcast | OVC042 | 50 | 35.6 | 58% | 46 | 30.07 | 0.0 | ||||||
| 06 | 19:15 | NE 10 | 10.00 | Overcast | OVC040 | 50 | 35.6 | 58% | 46 | 30.06 | 0.0 | ||||||
| 06 | 18:55 | NE 16 G 21 | 10.00 | Overcast | OVC038 | 51.8 | 35.6 | 55 | 44.8 | 54% | 30.05 | 0.0 | |||||
| 06 | 18:35 | NE 15 G 22 | 10.00 | Overcast | BKN038 OVC110 | 51.8 | 35.6 | 54% | 30.04 | 0.0 | |||||||
| 06 | 18:15 | NE 12 G 23 | 10.00 | Mostly Cloudy | BKN040 BKN110 | 51.8 | 35.6 | 54% | 30.03 | 0.0 | |||||||
| 06 | 17:55 | NE 14 | 10.00 | Partly Cloudy | SCT043 SCT120 | 53.6 | 37.4 | 54% | 30.02 | 0.0 | |||||||
| 06 | 17:35 | NE 12 | 10.00 | Mostly Cloudy | FEW034 BKN043 BKN120 | 53.6 | 37.4 | 54% | 30.02 | 0.0 | |||||||
| 06 | 17:15 | E 17 G 22 | 10.00 | Partly Cloudy | SCT035 SCT041 | 51.8 | 37.4 | 58% | 30.02 | 0.0 | |||||||
| 06 | 16:55 | E 15 G 20 | 10.00 | Partly Cloudy | FEW031 SCT037 SCT045 | 53.6 | 37.4 | 54% | 30.02 | 0.0 | |||||||
| 06 | 16:35 | E 14 G 18 | 10.00 | Mostly Cloudy | SCT031 BKN043 | 53.6 | 37.4 | 54% | 30.03 | 0.0 | |||||||
| 06 | 16:15 | NE 15 G 20 | 10.00 | Mostly Cloudy | BKN029 BKN041 BKN049 | 53.6 | 37.4 | 54% | 30.04 | 0.0 | |||||||
| 06 | 15:55 | E 7 | 10.00 | Mostly Cloudy | BKN027 BKN041 BKN049 | 50 | 37.4 | 62% | 48 | 30.05 | 0.0 | ||||||
| 06 | 15:35 | NE 9 | 10.00 | Partly Cloudy | SCT025 SCT047 | 51.8 | 39.2 | 62% | 30.05 | 0.0 | |||||||
| 06 | 15:15 | E 13 | 10.00 | Overcast | BKN023 OVC047 | 50 | 37.4 | 62% | 46 | 30.05 | 0.0 | ||||||
| 06 | 14:55 | E 9 G 18 | 10.00 | Overcast | BKN021 BKN027 OVC047 | 48.2 | 37.4 | 66% | 45 | 30.06 | 0.0 | ||||||
| 06 | 14:35 | Vrbl 7 | 10.00 | Overcast | BKN019 OVC047 | 48.2 | 39.2 | 71% | 46 | 30.06 | 0.0 | ||||||
| 06 | 14:15 | E 9 | 10.00 | Overcast | BKN019 OVC046 | 48.2 | 37.4 | 66% | 45 | 30.06 | 0.0 | ||||||
| 06 | 13:55 | SE 9 | 10.00 | Overcast | OVC017 | 48.2 | 39.2 | 71% | 45 | 30.06 | 0.0 | ||||||
| 06 | 13:35 | E 12 | 10.00 | Overcast | OVC013 | 46.4 | 39.2 | 76% | 42 | 30.07 | 0.0 | ||||||
| 06 | 13:15 | E 15 | 10.00 | Overcast | OVC013 | 46.4 | 39.2 | 76% | 41 | 30.07 | 0.0 | ||||||
| 06 | 12:55 | E 14 | 10.00 | Overcast | OVC013 | 46.4 | 39.2 | 45.1 | 41.5 | 76% | 41 | 30.07 | 0.0 | ||||
| 06 | 12:35 | SE 12 | 10.00 | Overcast | OVC013 | 44.6 | 39.2 | 81% | 39 | 30.08 | 0.0 | ||||||
| 06 | 12:15 | E 12 | 10.00 | Overcast | OVC013 | 44.6 | 39.2 | 81% | 39 | 30.08 | 0.0 | ||||||
| 06 | 11:55 | E 12 | 10.00 | Overcast | OVC013 | 44.6 | 39.2 | 81% | 39 | 30.08 | 0.0 | ||||||
| 06 | 11:35 | E 12 | 10.00 | Overcast | OVC013 | 42.8 | 39.2 | 87% | 37 | 30.07 | 0.0 | ||||||
| 06 | 11:15 | E 10 | 10.00 | Overcast | OVC013 | 42.8 | 37.4 | 81% | 38 | 30.07 | 0.0 | ||||||
| 06 | 10:55 | E 12 | 10.00 | Overcast | OVC013 | 42.8 | 37.4 | 81% | 37 | 30.06 | 0.0 | ||||||
| 06 | 10:35 | E 9 | 10.00 | Overcast | OVC013 | 42.8 | 37.4 | 81% | 38 | 30.05 | 0.0 | ||||||
| 06 | 10:15 | E 12 | 10.00 | Overcast | OVC013 | 42.8 | 37.4 | 81% | 37 | 30.05 | 0.0 | ||||||
| 06 | 09:55 | E 8 | 10.00 | Overcast | OVC013 | 42.8 | 37.4 | 81% | 39 | 30.05 | 0.0 | ||||||
| 06 | 09:35 | E 10 | 10.00 | Overcast | OVC013 | 42.8 | 37.4 | 81% | 38 | 30.03 | 0.0 | ||||||
| 06 | 09:15 | E 10 | 10.00 | Overcast | OVC013 | 42.8 | 37.4 | 81% | 38 | 30.04 | 0.0 | ||||||
| 06 | 08:55 | E 12 | 10.00 | Overcast | OVC015 | 42.8 | 37.4 | 81% | 37 | 30.04 | 0.0 | ||||||
| 06 | 08:35 | E 9 | 10.00 | Overcast | OVC017 | 42.8 | 35.6 | 76% | 38 | 30.03 | 0.0 | ||||||
| 06 | 08:15 | E 12 | 10.00 | Overcast | OVC019 | 42.8 | 35.6 | 76% | 37 | 30.03 | 0.0 | ||||||
| 06 | 07:55 | SE 12 G 22 | 10.00 | Overcast | OVC019 | 42.8 | 35.6 | 76% | 37 | 30.03 | 0.0 | ||||||
| 06 | 07:35 | SE 13 | 10.00 | Overcast | OVC017 | 42.8 | 35.6 | 76% | 37 | 30 | 0.0 | ||||||
| 06 | 07:15 | SE 7 | 10.00 | Overcast | OVC017 | 41 | 35.6 | 81% | 37 | 30.03 | 0.0 | ||||||
| 06 | 06:55 | SE 9 | 10.00 | Overcast | OVC017 | 42.8 | 35.6 | 44.8 | 41.2 | 76% | 38 | 30.01 | 0.0 | ||||
| 06 | 06:35 | SE 12 | 10.00 | Overcast | OVC017 | 41 | 35.6 | 81% | 35 | 30.01 | 0.0 | ||||||
| 06 | 05:55 | E 13 | 10.00 | Overcast | OVC017 | 41 | 35.6 | 81% | 34 | 29.99 | 0.0 | ||||||
| 06 | 05:35 | E 15 | 10.00 | Overcast | OVC017 | 41 | 35.6 | 81% | 34 | 29.98 | 0.0 | ||||||
| 06 | 05:15 | E 13 | 10.00 | Overcast | OVC017 | 41 | 37.4 | 87% | 34 | 29.97 | 0.0 | ||||||
| 06 | 04:55 | E 16 G 23 | 10.00 | Overcast | BKN012 OVC017 | 41 | 37.4 | 87% | 33 | 29.97 | 0.0 | ||||||
| 06 | 04:35 | E 12 | 10.00 | Overcast | OVC011 | 42.8 | 39.2 | 87% | 37 | 29.98 | 0.0 | ||||||
| 06 | 04:15 | E 10 | 10.00 | Overcast | OVC013 | 42.8 | 39.2 | 87% | 38 | 29.97 | 0.0 | ||||||
| 06 | 03:55 | E 10 | 10.00 | Overcast | OVC015 | 42.8 | 39.2 | 87% | 38 | 29.96 | 0.0 | ||||||
| 06 | 03:35 | E 14 G 20 | 10.00 | Overcast | OVC015 | 41 | 39.2 | 93% | 34 | 29.95 | 0.0 | ||||||
| 06 | 03:15 | E 14 | 10.00 | Overcast | BKN017 OVC110 | 42.8 | 39.2 | 87% | 36 | 29.95 | 0.0 | ||||||
| 06 | 02:55 | NE 13 | 10.00 | Partly Cloudy | FEW019 SCT110 | 41 | 39.2 | 93% | 34 | 29.96 | 0.0 | ||||||
| 06 | 02:35 | E 10 | 10.00 | Partly Cloudy | SCT020 | 42.8 | 39.2 | 87% | 38 | 29.96 | 0.0 | ||||||
| 06 | 02:15 | NE 9 | 10.00 | Overcast | BKN020 BKN027 OVC036 | 42.8 | 39.2 | 87% | 38 | 29.95 | 0.0 | ||||||
| 06 | 01:55 | E 13 | 10.00 | Light Drizzle | BKN022 BKN027 OVC070 | 42.8 | 39.2 | 87% | 37 | 29.97 | 0.0 | ||||||
| 06 | 01:35 | E 6 | 10.00 | Mostly Cloudy | BKN022 BKN090 BKN120 | 44.6 | 37.4 | 76% | 42 | 29.99 | 0.0 | ||||||
| 06 | 01:15 | E 16 | 10.00 | Mostly Cloudy | FEW022 BKN090 BKN120 | 44.6 | 35.6 | 71% | 38 | 29.93 | 0.0 | ||||||
| 06 | 00:55 | E 10 | 10.00 | Overcast | FEW032 SCT080 OVC100 | 42.8 | 35.6 | 56.8 | 42.6 | 76% | 38 | 29.95 | 0.0 | ||||
| 06 | 00:15 | E 14 | 10.00 | Fair | CLR | 42.8 | 35.6 | 76% | 36 | 29.93 | 0.0 | ||||||
| 05 | 23:55 | E 12 | 10.00 | Fair | CLR | 42.8 | 35.6 | 76% | 37 | 29.95 | 0.0 | ||||||
| 05 | 23:35 | NE 9 | 10.00 | Fair | CLR | 42.8 | 35.6 | 76% | 38 | 29.95 | 0.0 | ||||||
| 05 | 23:15 | NE 8 | 10.00 | Fair | CLR | 44.6 | 35.6 | 71% | 41 | 29.95 | 0.0 | ||||||
| 05 | 22:55 | E 13 | 10.00 | Fair | CLR | 44.6 | 35.6 | 71% | 39 | 29.91 | 0.0 | ||||||
| 05 | 22:35 | E 14 | 10.00 | Fair | CLR | 44.6 | 35.6 | 71% | 39 | 29.89 | 0.0 | ||||||
| 05 | 22:15 | E 15 | 10.00 | A Few Clouds | FEW002 FEW100 | 46.4 | 35.6 | 66% | 41 | 29.88 | 0.0 | ||||||
| 05 | 21:55 | E 15 | 10.00 | A Few Clouds | FEW100 | 46.4 | 33.8 | 62% | 41 | 29.88 | 0.0 | ||||||
| 05 | 21:35 | NE 16 G 20 | 10.00 | Fair | CLR | 46.4 | 33.8 | 62% | 40 | 29.88 | 0.0 | ||||||
| 05 | 21:15 | E 13 | 10.00 | A Few Clouds | FEW002 FEW041 | 48.2 | 33.8 | 58% | 43 | 29.86 | 0.0 | ||||||
| 05 | 20:55 | E 17 | 10.00 | Fair | CLR | 50 | 33.8 | 54% | 45 | 29.85 | 0.0 | ||||||
| 05 | 20:35 | E 18 | 10.00 | Fair | CLR | 50 | 33.8 | 54% | 44 | 29.86 | 0.0 | ||||||
| 05 | 20:15 | E 17 | 10.00 | A Few Clouds | FEW110 | 51.8 | 33.8 | 50% | 29.86 | 0.0 | |||||||
| 05 | 19:55 | E 17 | 10.00 | Partly Cloudy | FEW085 SCT110 | 53.6 | 35.6 | 51% | 29.86 | 0.0 | |||||||
| 05 | 19:35 | NE 12 | 10.00 | A Few Clouds | FEW090 | 53.6 | 33.8 | 47% | 29.88 | 0.0 | |||||||
| 05 | 19:15 | NE 13 G 21 | 10.00 | Fair | CLR | 53.6 | 33.8 | 47% | 29.85 | 0.0 | |||||||
| 05 | 18:55 | E 17 G 21 | 10.00 | Fair | CLR | 55.4 | 35.6 | 57.7 | 52.9 | 47% | 29.84 | 0.0 | |||||
| 05 | 18:35 | NE 15 G 21 | 10.00 | Fair | CLR | 57.2 | 35.6 | 44% | 29.84 | 0.0 | |||||||
| 05 | 18:15 | E 16 G 21 | 10.00 | Fair | CLR | 57.2 | 35.6 | 44% | 29.84 | 0.0 | |||||||
| 05 | 17:55 | E 13 | 10.00 | Fair | CLR | 57.2 | 35.6 | 44% | 29.84 | 0.0 | |||||||
| 05 | 17:35 | E 17 G 21 | 10.00 | A Few Clouds | FEW080 FEW090 | 57.2 | 35.6 | 44% | 29.85 | 0.0 | |||||||
| 05 | 17:15 | NE 8 | 10.00 | Mostly Cloudy | BKN080 BKN090 | 55.4 | 35.6 | 47% | 29.86 | 0.0 | |||||||
| 05 | 16:55 | NE 13 G 17 | 10.00 | Overcast | OVC090 | 55.4 | 33.8 | 44% | 29.86 | 0.0 | |||||||
| 05 | 16:35 | E 14 | 10.00 | Mostly Cloudy | FEW039 BKN100 | 57.2 | 33.8 | 41% | 29.87 | 0.0 | |||||||
| 05 | 16:15 | E 9 | 10.00 | Partly Cloudy | SCT039 SCT100 | 55.4 | 33.8 | 44% | 29.88 | 0.0 | |||||||
| 05 | 15:55 | NE 12 G 17 | 10.00 | A Few Clouds | FEW037 | 55.4 | 33.8 | 44% | 29.88 | 0.0 | |||||||
| 05 | 15:35 | E 15 G 20 | 10.00 | Mostly Cloudy | BKN037 | 55.4 | 33.8 | 44% | 29.88 | 0.0 | |||||||
| 05 | 15:15 | NE 13 G 23 | 10.00 | Overcast | OVC037 | 55.4 | 33.8 | 44% | 29.89 | 0.0 | |||||||
| 05 | 14:35 | NE 14 G 21 | 10.00 | Mostly Cloudy | BKN035 BKN045 | 55.4 | 35.6 | 47% | 29.89 | 0.0 | |||||||
| 05 | 14:15 | E 14 G 17 | 10.00 | Overcast | BKN033 OVC047 | 53.6 | 35.6 | 51% | 29.89 | 0.0 | |||||||
| 05 | 13:55 | NE 13 G 20 | 10.00 | Overcast | OVC033 | 53.6 | 33.8 | 47% | 29.89 | 0.0 | |||||||
| 05 | 13:35 | NE 13 G 24 | 10.00 | Overcast | OVC033 | 53.6 | 35.6 | 51% | 29.9 | 0.0 | |||||||
| 05 | 13:15 | NE 10 | 10.00 | Overcast | OVC033 | 53.6 | 35.6 | 51% | 29.92 | 0.0 | |||||||
| 05 | 12:55 | NE 12 G 20 | 10.00 | Overcast | OVC031 | 53.6 | 35.6 | 54.3 | 50 | 51% | 29.91 | 0.0 | |||||
| 05 | 12:35 | NE 17 G 25 | 10.00 | Overcast | OVC031 | 53.6 | 35.6 | 51% | 29.91 | 0.0 | |||||||
| 05 | 12:15 | NE 18 G 26 | 10.00 | Overcast | OVC031 | 53.6 | 35.6 | 51% | 29.89 | 0.0 | |||||||
| 05 | 11:55 | NE 18 G 26 | 10.00 | Overcast | OVC031 | 53.6 | 33.8 | 47% | 29.9 | 0.0 | |||||||
| 05 | 11:35 | NE 18 G 23 | 10.00 | Overcast | OVC031 | 53.6 | 33.8 | 47% | 29.9 | 0.0 | |||||||
| 05 | 11:15 | NE 17 G 21 | 10.00 | Overcast | OVC031 | 51.8 | 33.8 | 50% | 29.9 | 0.0 | |||||||
| 05 | 10:55 | N 15 | 10.00 | Overcast | OVC031 | 51.8 | 33.8 | 50% | 29.92 | 0.0 | |||||||
| 05 | 10:35 | NE 15 G 23 | 10.00 | Overcast | OVC027 | 51.8 | 33.8 | 50% | 29.9 | 0.0 | |||||||
| 05 | 10:15 | NE 17 G 26 | 10.00 | Overcast | OVC025 | 51.8 | 33.8 | 50% | 29.89 | 0.0 | |||||||
| 05 | 09:55 | NE 22 G 31 | 10.00 | Overcast and Breezy | OVC023 | 51.8 | 33.8 | 50% | 29.87 | 0.0 | |||||||
| 05 | 09:35 | NE 17 G 28 | 10.00 | Overcast | OVC023 | 51.8 | 33.8 | 50% | 29.87 | 0.0 | |||||||
| 05 | 09:15 | NE 20 G 28 | 10.00 | Overcast | OVC021 | 51.8 | 33.8 | 50% | 29.87 | 0.0 | |||||||
| 05 | 08:55 | NE 21 G 26 | 10.00 | Overcast and Breezy | OVC021 | 51.8 | 33.8 | 50% | 29.85 | 0.0 | |||||||
| 05 | 08:35 | NE 22 G 26 | 10.00 | Overcast and Breezy | OVC025 | 51.8 | 33.8 | 50% | 29.86 | 0.0 | |||||||
| 05 | 08:15 | NE 15 G 24 | 10.00 | Overcast | OVC025 | 50 | 32 | 50% | 45 | 29.85 | 0.0 | ||||||
| 05 | 07:55 | NE 18 | 10.00 | Overcast | OVC025 | 50 | 33.8 | 54% | 44 | 29.83 | 0.0 | ||||||
| 05 | 07:35 | NE 17 G 26 | 10.00 | Overcast | OVC023 | 50 | 33.8 | 54% | 45 | 29.82 | 0.0 | ||||||
| 05 | 07:15 | NE 15 G 26 | 10.00 | Overcast | OVC023 | 50 | 33.8 | 54% | 45 | 29.8 | 0.0 | ||||||
| 05 | 06:55 | N 17 G 28 | 10.00 | Overcast | OVC021 | 50 | 33.8 | 64.6 | 50.4 | 54% | 45 | 29.8 | 0.0 | ||||
| 05 | 06:35 | N 20 G 24 | 10.00 | Overcast | OVC021 | 50 | 33.8 | 54% | 44 | 29.79 | 0.0 | ||||||
| 05 | 06:15 | N 22 G 30 | 10.00 | Overcast and Breezy | OVC021 | 51.8 | 33.8 | 50% | 29.77 | 0.0 | |||||||
| 05 | 05:55 | N 24 G 30 | 10.00 | Overcast and Breezy | OVC021 | 51.8 | 33.8 | 50% | 29.77 | 0.0 | |||||||
| 05 | 05:35 | N 25 G 33 | 10.00 | Mostly Cloudy and Breezy | BKN021 | 53.6 | 35.6 | 51% | 29.76 | 0.0 | |||||||
| 05 | 05:15 | N 24 G 32 | 10.00 | Fair and Breezy | CLR | 53.6 | 37.4 | 54% | 29.76 | 0.0 | |||||||
| 05 | 04:55 | N 25 G 32 | 10.00 | Fair and Breezy | CLR | 53.6 | 37.4 | 54% | 29.75 | 0.0 | |||||||
| 05 | 04:35 | N 28 | 10.00 | Fair and Windy | CLR | 55.4 | 39.2 | 55% | 29.74 | 0.0 | |||||||
| 05 | 04:15 | N 28 G 35 | 10.00 | Fair and Windy | CLR | 55.4 | 41 | 59% | 29.73 | 0.0 | |||||||
| 05 | 03:55 | N 30 G 33 | 10.00 | Fair and Windy | CLR | 57.2 | 41 | 55% | 29.7 | 0.0 | |||||||
| 05 | 03:35 | N 23 | 10.00 | Fair and Breezy | CLR | 59 | 41 | 51% | 29.68 | 0.0 | |||||||
| 05 | 03:15 | N 25 G 32 | 10.00 | Fair and Breezy | CLR | 62.6 | 37.4 | 39% | 29.67 | 0.0 | |||||||
| 05 | 02:55 | NW 23 G 30 | 10.00 | Fair and Breezy | CLR | 62.6 | 26.6 | 25% | 29.65 | 0.0 | |||||||
| 05 | 02:35 | NW 20 | 10.00 | Fair | CLR | 64.4 | 23 | 21% | 29.66 | 0.0 | |||||||
| 05 | 02:15 | W 15 | 10.00 | Fair | CLR | 60.8 | 24.8 | 25% | 29.65 | 0.0 | |||||||
| 05 | 01:55 | W 16 | 10.00 | Fair | CLR | 64.4 | 23 | 21% | 29.65 | 0.0 | |||||||
| 05 | 01:35 | W 18 | 10.00 | Fair | CLR | 62.6 | 23 | 22% | 29.65 | 0.0 | |||||||
| 05 | 01:15 | W 14 | 10.00 | Fair | CLR | 62.6 | 24.8 | 24% | 29.65 | 0.0 | |||||||
| 05 | 00:55 | W 16 | 10.00 | Fair | CLR | 62.6 | 24.8 | 82 | 64 | 24% | 29.65 | 0.0 | |||||
| 05 | 00:35 | W 17 | 10.00 | Fair | CLR | 66.2 | 23 | 19% | 29.65 | 0.0 | |||||||
| 05 | 00:15 | W 15 | 10.00 | Fair | CLR | 66.2 | 23 | 19% | 29.65 | 0.0 | |||||||
| 04 | 23:55 | W 12 | 10.00 | Fair | CLR | 64.4 | 24.8 | 22% | 29.65 | 0.0 | |||||||
| 04 | 23:35 | W 10 | 10.00 | Fair | CLR | 64.4 | 23 | 21% | 29.65 | 0.0 | |||||||
| 04 | 23:15 | SW 13 | 10.00 | Fair | CLR | 68 | 21.2 | 17% | 29.65 | 0.0 | |||||||
| 04 | 22:55 | SW 14 | 10.00 | Fair | CLR | 68 | 19.4 | 16% | 29.65 | 0.0 | |||||||
| 04 | 22:35 | SW 13 | 10.00 | Fair | CLR | 68 | 19.4 | 16% | 29.65 | 0.0 | |||||||
| 04 | 22:15 | SW 13 | 10.00 | Fair | CLR | 68 | 17.6 | 14% | 29.64 | 0.0 | |||||||
| 04 | 21:55 | SW 13 | 10.00 | Fair | CLR | 68 | 17.6 | 14% | 29.63 | 0.0 | |||||||
| 04 | 21:35 | SW 12 | 10.00 | Fair | CLR | 69.8 | 19.4 | 15% | 29.63 | 0.0 | |||||||
| 04 | 21:15 | SW 12 | 10.00 | Fair | CLR | 69.8 | 21.2 | 16% | 29.63 | 0.0 | |||||||
| 04 | 20:55 | SW 12 | 10.00 | Fair | CLR | 71.6 | 23 | 16% | 29.63 | 0.0 | |||||||
| 04 | 20:35 | SW 12 | 10.00 | Fair | CLR | 73.4 | 21.2 | 14% | 29.63 | 0.0 | |||||||
| 04 | 20:15 | SW 10 | 10.00 | Fair | CLR | 77 | 24.8 | 14% | 76 | 29.62 | 0.0 | ||||||
| 04 | 19:55 | W 10 | 10.00 | Fair | CLR | 78.8 | 26.6 | 15% | 78 | 29.63 | 0.0 | ||||||
| 04 | 19:35 | W 15 | 10.00 | Fair | CLR | 80.6 | 26.6 | 14% | 79 | 29.64 | 0.0 | ||||||
| 04 | 19:15 | SW 20 | 10.00 | Fair | CLR | 82.4 | 24.8 | 12% | 80 | 29.64 | 0.0 | ||||||
| 04 | 18:55 | SW 17 | 10.00 | Fair | CLR | 82.4 | 32 | 85.8 | 81.3 | 16% | 80 | 29.64 | 0.0 | ||||
| 04 | 18:35 | SW 17 | 10.00 | Fair | CLR | 82.4 | 33.8 | 17% | 80 | 29.66 | 0.0 | ||||||
| 04 | 18:15 | W 16 | 10.00 | Fair | CLR | 82.4 | 32 | 16% | 80 | 29.66 | 0.0 | ||||||
| 04 | 17:55 | SW 15 | 10.00 | Fair | CLR | 82.4 | 30.2 | 15% | 80 | 29.66 | 0.0 | ||||||
| 04 | 17:35 | W 14 | 10.00 | Fair | CLR | 84.2 | 30.2 | 14% | 81 | 29.66 | 0.0 | ||||||
| 04 | 17:15 | W 15 G 24 | 10.00 | Fair | CLR | 84.2 | 30.2 | 14% | 81 | 29.67 | 0.0 | ||||||
| 04 | 16:55 | W 17 G 26 | 10.00 | Fair | CLR | 84.2 | 30.2 | 14% | 81 | 29.67 | 0.0 | ||||||
| 04 | 16:35 | W 21 G 25 | 10.00 | Fair and Breezy | CLR | 84.2 | 30.2 | 14% | 81 | 29.68 | 0.0 | ||||||
| 04 | 16:15 | SW 20 G 25 | 10.00 | Fair | CLR | 84.2 | 30.2 | 14% | 81 | 29.69 | 0.0 | ||||||
| 04 | 15:55 | W 16 G 23 | 10.00 | Fair | CLR | 84.2 | 32 | 15% | 81 | 29.7 | 0.0 | ||||||
| 04 | 15:35 | W 21 G 25 | 10.00 | Fair and Breezy | CLR | 84.2 | 30.2 | 14% | 81 | 29.7 | 0.0 | ||||||
| 04 | 15:15 | W 17 G 28 | 10.00 | Fair | CLR | 84.2 | 32 | 15% | 81 | 29.71 | 0.0 | ||||||
| 04 | 14:55 | W 24 G 28 | 10.00 | Fair and Breezy | CLR | 82.4 | 32 | 16% | 80 | 29.72 | 0.0 | ||||||
| 04 | 14:35 | W 20 | 10.00 | Fair | CLR | 82.4 | 33.8 | 17% | 80 | 29.73 | 0.0 | ||||||
| 04 | 14:15 | W 18 | 10.00 | Fair | CLR | 82.4 | 32 | 16% | 80 | 29.74 | 0.0 | ||||||
| 04 | 13:55 | W 20 G 28 | 10.00 | Fair | CLR | 82.4 | 33.8 | 17% | 80 | 29.74 | 0.0 | ||||||
| 04 | 13:35 | W 20 G 28 | 10.00 | Fair | CLR | 82.4 | 35.6 | 19% | 80 | 29.75 | 0.0 | ||||||
| 04 | 13:15 | W 25 G 30 | 10.00 | Fair and Breezy | CLR | 82.4 | 35.6 | 19% | 80 | 29.75 | 0.0 | ||||||
| 04 | 12:55 | W 22 G 28 | 10.00 | Fair and Breezy | CLR | 82.4 | 33.8 | 82.8 | 55.8 | 17% | 80 | 29.77 | 0.0 | ||||
| 04 | 12:35 | W 25 G 30 | 10.00 | Fair and Breezy | CLR | 82.4 | 35.6 | 19% | 80 | 29.77 | 0.0 | ||||||
| 04 | 12:15 | W 21 G 31 | 10.00 | Fair and Breezy | CLR | 82.4 | 35.6 | 19% | 80 | 29.78 | 0.0 | ||||||
| 04 | 11:55 | W 18 G 28 | 10.00 | Fair | CLR | 80.6 | 37.4 | 21% | 79 | 29.79 | 0.0 | ||||||
| 04 | 11:35 | W 18 | 10.00 | Fair | CLR | 78.8 | 37.4 | 23% | 78 | 29.79 | 0.0 | ||||||
| 04 | 11:15 | W 16 | 10.00 | Fair | CLR | 75.2 | 39.2 | 27% | 77 | 29.8 | 0.0 | ||||||
| 04 | 10:55 | W 16 | 10.00 | Fair | CLR | 75.2 | 37.4 | 25% | 77 | 29.8 | 0.0 | ||||||
| 04 | 10:35 | W 17 | 10.00 | Fair | CLR | 73.4 | 37.4 | 27% | 29.8 | 0.0 | |||||||
| 04 | 10:15 | W 18 G 23 | 10.00 | Fair | CLR | 69.8 | 39.2 | 33% | 29.8 | 0.0 | |||||||
| 04 | 09:55 | W 18 | 10.00 | Fair | CLR | 68 | 37.4 | 33% | 29.81 | 0.0 | |||||||
| 04 | 09:35 | W 16 | 10.00 | Fair | CLR | 66.2 | 37.4 | 35% | 29.8 | 0.0 | |||||||
| 04 | 09:15 | W 18 | 10.00 | Fair | CLR | 64.4 | 35.6 | 34% | 29.8 | 0.0 | |||||||
| 04 | 08:55 | W 20 G 24 | 10.00 | Fair | CLR | 62.6 | 35.6 | 37% | 29.79 | 0.0 | |||||||
| 04 | 08:35 | W 21 G 28 | 10.00 | Fair and Breezy | CLR | 60.8 | 35.6 | 39% | 29.8 | 0.0 | |||||||
| 04 | 08:15 | W 16 G 23 | 10.00 | Fair | CLR | 59 | 37.4 | 45% | 29.8 | 0.0 | |||||||
| 04 | 07:55 | W 14 | 10.00 | Fair | CLR | 57.2 | 39.2 | 51% | 29.79 | 0.0 | |||||||
| 04 | 07:35 | W 14 | 10.00 | Fair | CLR | 57.2 | 41 | 55% | 29.78 | 0.0 | |||||||
| 04 | 07:15 | W 12 | 10.00 | Fair | CLR | 57.2 | 41 | 55% | 29.78 | 0.0 | |||||||
| Date | Time (cdt) | Wind (mph) | Vis. (mi.) | Weather | Sky Cond. | Air | Dwpt | Max. | Min. | Relative Humidity | Wind Chill (°F) | Heat Index (°F) | altimeter (in) | sea level (mb) | 1 hr | 3 hr | 6 hr |
| 6 hour | |||||||||||||||||
| Temperature (ºF) | Pressure | Precipitation (in) | |||||||||||||||